GW3537 Weather Reports


time (UTC)temp
C
wind
direction
speed
KPH
gust
KPH
rain 1hr
cm
rain 24hr
cm
rain mn
cm
humidity
%
barometer
mb
20260503054529 7 256 0.0 0.0 0.00 0.15 0.15 89 1016.9
20260503053015 8 256 0.0 0.0 0.00 0.15 0.15 88 1017.0
20260503051519 8 256 0.0 0.0 0.00 0.15 0.15 87 1017.3
20260503050033 9 255 0.0 0.0 0.00 0.15 0.15 87 1017.3
20260503044526 9 271 0.0 0.0 0.00 0.15 0.15 87 1017.3
20260503043026 9 294 0.0 0.0 0.00 0.15 0.15 87 1017.2
20260503041518 9 293 0.0 0.0 0.00 0.15 0.15 87 1017.4
20260503040002 9 293 0.0 0.0 0.03 0.15 0.15 86 1017.1
20260503034508 9 293 0.0 0.0 0.03 0.15 0.15 87 1016.6
20260503033012 9 38 0.0 0.0 0.03 0.15 0.15 86 1016.2
20260503031515 10 261 0.0 1.6 0.05 0.15 0.15 83 1016.0
20260503030020 10 243 0.0 0.0 0.03 0.13 0.13 83 1016.0
20260503024508 10 243 0.0 0.0 0.03 0.13 0.13 83 1016.4
20260503023008 10 163 0.0 0.0 0.03 0.13 0.13 80 1016.9
20260503021514 10 191 0.0 0.0 0.03 0.10 0.10 79 1016.4
20260503020017 11 169 0.0 0.0 0.10 0.10 0.10 81 1016.1
20260503014536 11 91 0.0 4.8 0.10 0.10 0.10 80 1016.5
20260503013016 11 95 0.0 8.0 0.10 0.10 0.10 79 1016.6
20260503011512 11 64 0.0 19.3 0.08 0.08 0.08 72 1016.6
20260503010015 13 82 0.0 4.8 0.00 0.00 0.00 62 1016.1
20260503004521 14 80 0.0 8.0 0.00 0.00 0.00 53 1015.8
20260503003024 15 122 1.6 8.0 0.00 0.00 0.00 55 1015.4
20260503001509 16 283 0.0 6.4 0.00 0.00 0.00 47 1015.0
20260503000015 16 276 0.0 4.8 0.00 0.00 0.00 41 1014.5
20260502234516 16 285 0.0 0.0 0.00 0.00 0.00 42 1014.6
20260502233023 16 314 0.0 1.6 0.00 0.00 0.00 41 1014.9
20260502231506 16 309 0.0 1.6 0.00 0.00 0.00 42 1015.1
20260502230013 15 39 0.0 1.6 0.00 0.00 0.00 46 1015.1
20260502224516 15 289 0.0 12.9 0.00 0.00 0.00 48 1015.1
20260502223020 15 266 1.6 12.9 0.00 0.00 0.00 41 1015.7
20260502221521 16 198 3.2 12.9 0.00 0.00 0.00 45 1015.5
20260502220010 17 291 3.2 19.3 0.00 0.00 0.00 37 1015.5
20260502214516 18 76 0.0 0.0 0.00 0.00 0.00 35 1015.7
20260502213020 18 51 0.0 1.6 0.00 0.00 0.00 36 1015.6
20260502211533 18 281 0.0 0.0 0.00 0.00 0.00 33 1015.8
20260502210023 17 248 0.0 4.8 0.00 0.00 0.00 36 1016.0
20260502204514 18 193 1.6 14.5 0.00 0.00 0.00 33 1016.5
20260502203015 18 243 0.0 3.2 0.00 0.00 0.00 31 1016.0
20260502201520 18 257 0.0 3.2 0.00 0.00 0.00 29 1016.1
20260502200024 19 253 0.0 3.2 0.00 0.00 0.00 27 1016.2
20260502194527 19 72 0.0 6.4 0.00 0.00 0.00 27 1016.3
20260502193018 19 284 0.0 1.6 0.00 0.00 0.00 27 1016.4
20260502191524 19 269 0.0 1.6 0.00 0.00 0.00 27 1016.4
20260502190026 20 44 0.0 4.8 0.00 0.00 0.00 26 1016.5
20260502184526 19 45 0.0 1.6 0.00 0.00 0.00 26 1016.5
20260502183012 19 260 0.0 0.0 0.00 0.00 0.00 29 1016.6
20260502181527 18 276 0.0 3.2 0.00 0.00 0.00 29 1016.8
20260502163010 18 82 0.0 0.0 0.00 0.00 0.00 44 1016.8
20260502161514 17 103 0.0 1.6 0.00 0.00 0.00 42 1016.8
20260502123024 5 271 0.0 0.0 0.00 0.00 0.00 71 1016.2
20260502121508 6 271 0.0 0.0 0.00 0.00 0.00 71 1016.2
20260502114517 5 271 0.0 0.0 0.00 0.00 0.00 72 1016.2
20260502113004 5 271 0.0 0.0 0.00 0.00 0.00 72 1016.2
20260502111506 5 271 0.0 0.0 0.00 0.00 0.00 71 1016.2
20260502110008 5 271 0.0 0.0 0.00 0.00 0.00 71 1016.1
20260502104536 6 271 0.0 0.0 0.00 0.00 0.00 70 1016.2
20260502103026 6 271 0.0 0.0 0.00 0.00 0.00 69 1016.2
20260502101506 6 271 0.0 0.0 0.00 0.00 0.00 67 1016.1
20260502091524 7 271 0.0 0.0 0.00 0.00 0.00 63 1016.4
20260502071536 10 280 0.0 0.0 0.00 0.00 0.00 43 1017.3